Pittsburgh, PA

10:01 AM EDT on September 25, 2016 (GMT -0400)
Allegheny County

Weather History for KAGC - August, 2013

Change the Weather History Date:

Saturday, August 17, 2013

  Actual Average Record
Temperature  
Mean Temperature 68 °F -  
Max Temperature 77 °F 84 °F 97 °F (1988)
Min Temperature 59 °F 63 °F 55 °F (1971)
Cooling Degree Days 3    
Growing Degree Days 18 (Base 50)    
Moisture  
Dew Point 54 °F    
Average Humidity 64    
Maximum Humidity 83    
Minimum Humidity 40    
Precipitation  
Precipitation 0.00 in - - ()
Sea Level Pressure  
Sea Level Pressure 30.23 in    
Wind  
Wind Speed 3 mph (ESE)    
Max Wind Speed 10 mph    
Max Gust Speed 16 mph    
Visibility 10 miles    
Events      
Averages and records for this station are not official NWS values.
T = Trace of Precipitation, MM = Missing Value Source: NWS Daily Summary

Daily Weather History Graph

Daily Weather History Graph

Search for Another Location

Airport or City:

Trip Planner

Search our weather history database for the weather conditions in past years. The results will help you decide how hot, cold, wet, or windy it might be!

Date:

Astronomy

Aug. 17, 2013 Rise Set
Actual Time 6:32 AM EDT 8:13 PM EDT
Civil Twilight 6:03 AM EDT 8:42 PM EDT
Nautical Twilight 5:28 AM EDT 9:17 PM EDT
Astronomical Twilight 4:51 AM EDT 9:55 PM EDT
Moon 5:28 PM EDT (8/17) 2:33 AM EDT (8/17)
Length of Visible Light 14h 38m
Length of Day
13h 41m
Waxing Gibbous, 84% of the Moon is Illuminated
Aug 17
Waxing Gibbous
Aug 20
Full
Aug 28
Last Quarter
Sep 5
New
Sep 12
First Quarter

Hourly Weather History & Observations

Time (EDT) Temp. Dew Point Humidity Pressure Visibility Wind Dir Wind Speed Gust Speed Precip Events Conditions
12:53 AM 64.0 °F 54.0 °F 70% 30.19 in 10.0 mi Calm Calm - N/A   Partly Cloudy
1:53 AM 62.1 °F 55.0 °F 78% 30.20 in 10.0 mi SSE 4.6 mph - N/A   Clear
2:53 AM 62.1 °F 55.0 °F 78% 30.19 in 10.0 mi Calm Calm - N/A   Clear
3:53 AM 62.1 °F 54.0 °F 75% 30.21 in 10.0 mi ESE 3.5 mph - N/A   Clear
4:53 AM 60.1 °F 54.0 °F 80% 30.22 in 10.0 mi Calm Calm - N/A   Clear
5:53 AM 61.0 °F 53.1 °F 75% 30.23 in 10.0 mi Calm Calm - N/A   Clear
6:53 AM 59.0 °F 53.1 °F 81% 30.24 in 10.0 mi ENE 4.6 mph - N/A   Clear
7:53 AM 59.0 °F 54.0 °F 83% 30.26 in 10.0 mi Calm Calm - N/A   Clear
8:53 AM 63.0 °F 55.9 °F 78% 30.27 in 10.0 mi Calm Calm - N/A   Clear
9:53 AM 68.0 °F 57.0 °F 68% 30.26 in 10.0 mi Calm Calm - N/A   Clear
10:53 AM 70.0 °F 54.0 °F 57% 30.25 in 10.0 mi Variable 3.5 mph - N/A   Clear
11:53 AM 73.0 °F 55.0 °F 53% 30.25 in 10.0 mi East 5.8 mph - N/A   Clear
12:53 PM 75.0 °F 54.0 °F 48% 30.25 in 10.0 mi SE 8.1 mph - N/A   Clear
1:53 PM 77.0 °F 53.1 °F 43% 30.23 in 10.0 mi East 6.9 mph - N/A   Clear
2:53 PM 75.9 °F 50.0 °F 40% 30.23 in 10.0 mi Variable 6.9 mph 16.1 mph N/A   Clear
3:53 PM 75.9 °F 51.1 °F 42% 30.22 in 10.0 mi SE 10.4 mph 16.1 mph N/A   Clear
4:53 PM 73.9 °F 52.0 °F 46% 30.22 in 10.0 mi ESE 10.4 mph - N/A   Clear
5:53 PM 73.9 °F 53.1 °F 48% 30.23 in 10.0 mi SE 9.2 mph - N/A   Clear
6:53 PM 72.0 °F 55.0 °F 55% 30.23 in 10.0 mi ESE 4.6 mph - N/A   Clear
7:53 PM 70.0 °F 55.0 °F 59% 30.23 in 10.0 mi ESE 5.8 mph - N/A   Clear
8:53 PM 66.9 °F 55.0 °F 66% 30.22 in 10.0 mi East 5.8 mph - N/A   Clear
9:53 PM 66.9 °F 55.0 °F 66% 30.23 in 10.0 mi East 4.6 mph - N/A   Clear
10:53 PM 66.0 °F 55.9 °F 70% 30.22 in 10.0 mi East 4.6 mph - N/A   Clear
11:53 PM 64.9 °F 55.0 °F 70% 30.21 in 10.0 mi East 4.6 mph - N/A   Clear